Location: Barcelona
(41.3830°N, 2.1830°E)
Time: 06:08:10
(UTC+02:00)

ISS - Pass Details

Date: 27 July 2019
Orbit: 410 x 420 km, 51.6° (Epoch: 19 August)

Event Time Altitude Azimuth Distance (km) Brightness Sun altitude
Rises 00:15:22 0° 309° (NW) 2,370 1.1 -24.8°
Reaches altitude 10° 00:17:42 10° 323° (NW) 1,501 0.1 -25.0°
Enters shadow 00:20:17 26° 12° (NNE) 870 -1.7 -25.2°
